Lexington, KY

3:10 PM EDT on March 24, 2017 (GMT -0400)
Blue Grass

Weather History for KLEX - November, 2014

Change the Weather History Date:

Monday, November 17, 2014

  Actual Average Record
Temperature  
Mean Temperature 28 °F 46 °F  
Max Temperature 38 °F 55 °F 80 °F (1958)
Min Temperature 18 °F 37 °F 12 °F (1959)
Degree Days  
Heating Degree Days 37 19  
Month to date heating degree days 409 274  
Since 1 July heating degree days 657 600  
Cooling Degree Days 0 0  
Month to date cooling degree days 0 0  
Year to date cooling degree days 1274 1188  
Moisture  
Dew Point 25 °F    
Average Humidity 88    
Maximum Humidity 100    
Minimum Humidity 75    
Precipitation  
Precipitation 0.59 in 0.12 in 2.50 in (1921)
Month to date precipitation 1.37 1.89  
Year to date precipitation 49.92 39.60  
Snow  
Snow 1.50 in 0.00 in 3.00 in (1920)
Month to date snowfall 1.6 0.1  
Since 1 July snowfall 1.6 0.1  
Since 1 September snowfall 1.6 0.1  
Snow Depth T in    
Sea Level Pressure  
Sea Level Pressure 29.92 in    
Wind  
Wind Speed 11 mph (WNW)    
Max Wind Speed 24 mph    
Max Gust Speed 32 mph    
Visibility 4 miles    
Events Fog , Rain , Snow    
T = Trace of Precipitation, MM = Missing Value Source: NWS Daily Summary

Daily Weather History Graph

Daily Weather History Graph

Search for Another Location

Airport or City:

Trip Planner

Search our weather history database for the weather conditions in past years. The results will help you decide how hot, cold, wet, or windy it might be!

Date:

Astronomy

Nov. 17, 2014 Rise Set
Actual Time 7:21 AM EST 5:25 PM EST
Civil Twilight 6:53 AM EST 5:53 PM EST
Nautical Twilight 6:21 AM EST 6:25 PM EST
Astronomical Twilight 5:49 AM EST 6:56 PM EST
Moon 2:27 AM EST (11/17) 2:44 PM EST (11/17)
Length of Visible Light 11h 00m
Length of Day
10h 03m
Waning Crescent, 23% of the Moon is Illuminated
Nov 17
Waning Crescent
Nov 22
New
Nov 29
First Quarter
Dec 6
Full
Dec 14
Last Quarter

Hourly Weather History & Observations

Time (EST) Temp. Windchill Dew Point Humidity Pressure Visibility Wind Dir Wind Speed Gust Speed Precip Events Conditions
12:03 AM 37.9 °F - 37.0 °F 97% 29.86 in 2.0 mi Calm Calm - 0.01 in Rain Light Rain
12:19 AM 37.9 °F 33.5 °F 37.0 °F 97% 29.85 in 1.8 mi NNW 5.8 mph - 0.01 in Rain Light Rain
12:35 AM 37.9 °F 34.4 °F 37.0 °F 97% 29.85 in 2.5 mi NNW 4.6 mph - 0.02 in Rain Light Rain
12:54 AM 37.9 °F 35.5 °F 37.0 °F 97% 29.86 in 2.5 mi NNW 3.5 mph - 0.02 in   Overcast
1:54 AM 37.0 °F 32.4 °F 37.0 °F 100% 29.83 in 2.5 mi NNW 5.8 mph - 0.05 in Rain Rain
2:02 AM 37.0 °F 31.6 °F 37.0 °F 100% 29.80 in 3.0 mi NNW 6.9 mph - 0.01 in Rain Rain
2:54 AM 36.0 °F 31.1 °F 35.1 °F 97% 29.81 in 5.0 mi NNW 5.8 mph - 0.06 in Rain Light Rain
3:54 AM 33.8 °F 27.7 °F 33.8 °F 100% 29.80 in 5.0 mi NW 6.9 mph - N/A Rain Rain
4:35 AM 33.1 °F 25.5 °F 32.0 °F 96% 29.80 in 7.0 mi NW 9.2 mph - 0.06 in Rain Light Rain
4:54 AM 33.1 °F 25.5 °F 32.0 °F 96% 29.82 in 6.0 mi NW 9.2 mph - 0.08 in Rain Rain
5:54 AM 32.0 °F 24.2 °F 30.9 °F 96% 29.80 in 5.0 mi NW 9.2 mph - 0.10 in   Overcast
6:07 AM 32.0 °F 25.6 °F 30.9 °F 96% 29.78 in 5.0 mi NW 6.9 mph - 0.01 in Rain Light Freezing Rain
6:19 AM 32.0 °F 23.0 °F 30.9 °F 96% 29.78 in 3.0 mi NW 11.5 mph - 0.03 in Rain Light Freezing Rain
6:45 AM 32.0 °F 23.6 °F 30.9 °F 96% 29.79 in 6.0 mi WNW 10.4 mph - 0.07 in Snow Light Snow
6:54 AM 32.0 °F 23.0 °F 30.9 °F 96% 29.81 in 3.0 mi NW 11.5 mph - 0.07 in Snow Light Snow
7:01 AM 30.9 °F 21.2 °F 30.0 °F 96% 29.78 in 1.8 mi NW 12.7 mph - 0.01 in Snow Light Snow
7:25 AM 30.9 °F 23.5 °F 30.0 °F 96% 29.78 in 0.8 mi NW 8.1 mph - 0.03 in Snow Light Snow
7:36 AM 30.9 °F 22.2 °F 30.0 °F 96% 29.80 in 1.2 mi WNW 10.4 mph - 0.05 in Snow Light Snow
7:46 AM 30.0 °F 21.1 °F 28.9 °F 96% 29.80 in 0.5 mi WNW 10.4 mph - 0.05 in Fog , Snow Snow
7:54 AM 30.0 °F 23.2 °F 28.9 °F 96% 29.83 in 1.8 mi WNW 6.9 mph - 0.05 in Snow Light Snow
7:57 AM 30.0 °F 21.1 °F 28.9 °F 96% 29.81 in 3.0 mi WNW 10.4 mph - 0.00 in Snow Light Snow
8:08 AM 30.0 °F 21.1 °F 28.9 °F 96% 29.82 in 6.0 mi WNW 10.4 mph - 0.00 in   Overcast
8:21 AM 30.0 °F 19.5 °F 28.0 °F 92% 29.83 in 8.0 mi WNW 13.8 mph - 0.00 in   Overcast
8:49 AM 30.2 °F 22.6 °F 28.4 °F 93% 29.85 in 4.0 mi WNW 8.1 mph - 0.00 in   Overcast
8:54 AM 30.0 °F 21.7 °F 28.9 °F 96% 29.88 in 3.0 mi WNW 9.2 mph - 0.00 in   Overcast
8:57 AM 30.0 °F 21.7 °F 28.9 °F 96% 29.86 in 2.5 mi WNW 9.2 mph - N/A   Overcast
9:01 AM 30.0 °F 21.1 °F 28.9 °F 96% 29.86 in 2.5 mi WNW 10.4 mph - 0.00 in Rain Light Freezing Rain
9:07 AM 30.0 °F 19.1 °F 28.9 °F 96% 29.86 in 1.8 mi West 15.0 mph - 0.00 in Snow Light Snow
9:21 AM 30.0 °F 20.0 °F 28.9 °F 96% 29.87 in 0.5 mi WNW 12.7 mph - 0.01 in Fog , Snow Snow
9:30 AM 28.9 °F 19.8 °F 28.0 °F 96% 29.86 in 0.5 mi WNW 10.4 mph 24.2 mph 0.01 in Fog , Snow Snow
9:54 AM 28.9 °F 20.4 °F 28.0 °F 96% 29.88 in 0.8 mi WNW 9.2 mph - 0.03 in Snow Light Snow
10:02 AM 30.0 °F 22.4 °F 28.9 °F 96% 29.86 in 1.0 mi West 8.1 mph - 0.00 in Snow Light Snow
10:18 AM 30.0 °F 23.2 °F 28.0 °F 92% 29.86 in 2.0 mi West 6.9 mph - 0.00 in Snow Light Snow
10:25 AM 30.0 °F 21.7 °F 28.0 °F 92% 29.87 in 2.0 mi West 9.2 mph - 0.00 in Snow Light Snow
10:30 AM 30.0 °F 21.7 °F 28.0 °F 92% 29.87 in 1.8 mi West 9.2 mph - 0.00 in Snow Light Snow
10:40 AM 30.0 °F 20.0 °F 28.0 °F 92% 29.86 in 2.0 mi West 12.7 mph - 0.00 in Snow Light Snow
10:51 AM 30.2 °F 19.8 °F 28.4 °F 93% 29.87 in 3.0 mi West 13.8 mph - 0.00 in Snow Light Snow
10:54 AM 30.0 °F 19.5 °F 28.0 °F 92% 29.88 in 4.0 mi West 13.8 mph - 0.00 in Snow Light Snow
11:07 AM 30.0 °F 20.5 °F 27.0 °F 88% 29.87 in 10.0 mi West 11.5 mph - 0.00 in   Overcast
11:37 AM 30.0 °F 17.9 °F 26.1 °F 85% 29.87 in 7.0 mi WNW 18.4 mph 23.0 mph 0.00 in   Overcast
11:44 AM 30.0 °F 17.2 °F 26.1 °F 85% 29.87 in 8.0 mi West 20.7 mph 25.3 mph 0.00 in   Overcast
11:54 AM 28.9 °F 17.7 °F 25.0 °F 85% 29.89 in 8.0 mi West 15.0 mph 27.6 mph 0.00 in   Overcast
12:02 PM 28.4 °F 17.0 °F 24.8 °F 86% 29.88 in 8.0 mi WNW 15.0 mph 23.0 mph N/A   Overcast
12:18 PM 28.0 °F 16.5 °F 25.0 °F 88% 29.88 in 7.0 mi WNW 15.0 mph 26.5 mph N/A   Overcast
12:54 PM 28.0 °F 16.1 °F 23.0 °F 81% 29.90 in 8.0 mi West 16.1 mph 21.9 mph N/A   Overcast
1:27 PM 28.0 °F 15.7 °F 23.0 °F 81% 29.88 in 8.0 mi West 17.3 mph 27.6 mph N/A   Overcast
1:54 PM 26.1 °F 12.7 °F 19.9 °F 78% 29.92 in 10.0 mi West 18.4 mph 29.9 mph N/A   Overcast
2:54 PM 25.0 °F 11.3 °F 19.0 °F 78% 29.97 in 6.0 mi West 18.4 mph 29.9 mph 0.00 in Snow Light Snow
3:39 PM 21.9 °F 5.8 °F 17.1 °F 82% 29.97 in 2.5 mi West 23.0 mph 32.2 mph 0.00 in Snow Light Snow
3:54 PM 21.9 °F 9.2 °F 17.1 °F 82% 30.01 in 4.0 mi West 13.8 mph 27.6 mph 0.00 in Snow Light Snow
4:23 PM 21.9 °F 7.8 °F 17.1 °F 82% 29.99 in 1.8 mi West 17.3 mph 26.5 mph 0.00 in Snow Light Snow
4:38 PM 21.0 °F 6.6 °F 17.1 °F 85% 30.00 in 2.5 mi West 17.3 mph - 0.00 in Snow Light Snow
4:54 PM 21.0 °F 7.1 °F 16.0 °F 81% 30.04 in 2.5 mi West 16.1 mph - 0.00 in Snow Light Snow
5:07 PM 21.0 °F 8.6 °F 16.0 °F 81% 30.02 in 6.0 mi West 12.7 mph - 0.00 in Snow Light Snow
5:25 PM 21.0 °F 8.1 °F 16.0 °F 81% 30.03 in 8.0 mi West 13.8 mph - 0.00 in   Overcast
5:54 PM 21.0 °F 9.3 °F 15.1 °F 78% 30.09 in 6.0 mi West 11.5 mph - 0.00 in Snow Light Snow
6:54 PM 19.9 °F 8.6 °F 14.0 °F 78% 30.10 in 10.0 mi West 10.4 mph - 0.00 in   Mostly Cloudy
7:54 PM 19.9 °F 10.1 °F 15.1 °F 81% 30.13 in 10.0 mi WSW 8.1 mph - 0.00 in   Overcast
8:54 PM 19.0 °F 8.2 °F 15.1 °F 85% 30.14 in 10.0 mi WSW 9.2 mph - N/A   Mostly Cloudy
9:54 PM 18.0 °F 7.7 °F 14.0 °F 84% 30.15 in 10.0 mi WSW 8.1 mph - N/A   Mostly Cloudy
10:54 PM 19.9 °F 11.1 °F 15.1 °F 81% 30.17 in 4.0 mi West 6.9 mph - 0.00 in Snow Light Snow
11:04 PM 19.9 °F 9.3 °F 16.0 °F 85% 30.13 in 2.0 mi West 9.2 mph - 0.00 in Snow Light Snow
11:12 PM 19.0 °F 11.1 °F 17.1 °F 92% 30.13 in 1.0 mi West 5.8 mph - 0.01 in Snow Light Snow
11:14 PM 19.0 °F 9.0 °F 17.1 °F 92% 30.13 in 2.0 mi West 8.1 mph - 0.01 in Snow Light Snow
11:26 PM 19.0 °F 7.5 °F 15.1 °F 85% 30.13 in 4.0 mi West 10.4 mph 18.4 mph 0.01 in Snow Light Snow
11:33 PM 19.0 °F 6.8 °F 15.1 °F 85% 30.13 in 2.5 mi West 11.5 mph - 0.01 in Snow Light Snow
11:42 PM 19.0 °F 8.2 °F 16.0 °F 88% 30.13 in 1.0 mi WNW 9.2 mph - 0.01 in Snow Light Snow
11:54 PM 19.0 °F 8.2 °F 16.0 °F 88% 30.17 in 1.2 mi West 9.2 mph 19.6 mph 0.01 in Snow Light Snow